North Platte, NE

12:33 PM CDT on August 19, 2017 (GMT -0500)
North Platte Regional-Bird

Weather History for KLBF - January, 2013

Change the Weather History Date:

Friday, January 4, 2013

  Actual Average Record
Temperature  
Mean Temperature 20 °F 24 °F  
Max Temperature 37 °F 38 °F 65 °F (1989)
Min Temperature 3 °F 11 °F -23 °F (1974)
Degree Days  
Heating Degree Days 45 41  
Month to date heating degree days 189 164  
Since 1 July heating degree days 2904 2944  
Cooling Degree Days 0 0  
Month to date cooling degree days 0 0  
Year to date cooling degree days 0 0  
Moisture  
Dew Point 8 °F    
Average Humidity 68    
Maximum Humidity 92    
Minimum Humidity 44    
Precipitation  
Precipitation 0.00 in 0.01 in 0.40 in (1949)
Month to date precipitation T 0.05  
Year to date precipitation T 0.05  
Snow  
Snow 0.00 in 0.10 in 6.40 in (2017)
Month to date snowfall 0.1 0.6  
Since 1 July snowfall 8.0 11.4  
Snow Depth 1.00 in    
Sea Level Pressure  
Sea Level Pressure 30.25 in    
Wind  
Wind Speed 5 mph (WNW)    
Max Wind Speed 10 mph    
Max Gust Speed 12 mph    
Visibility 10 miles    
Events      
T = Trace of Precipitation, MM = Missing Value Source: NWS Daily Summary

Daily Weather History Graph

Daily Weather History Graph

Search for Another Location

Airport or City:

Trip Planner

Search our weather history database for the weather conditions in past years. The results will help you decide how hot, cold, wet, or windy it might be!

Date:

Astronomy

Jan. 04, 2013 Rise Set
Actual Time 8:08 AM CST 5:27 PM CST
Civil Twilight 7:37 AM CST 5:58 PM CST
Nautical Twilight 7:02 AM CST 6:33 PM CST
Astronomical Twilight 6:29 AM CST 7:06 PM CST
Moon 12:08 AM CST (1/4) 11:47 AM CST (1/4)
Length of Visible Light 10h 21m
Length of Day
9h 19m
Waning Gibbous, 55% of the Moon is Illuminated
Jan 4
Waning Gibbous
Jan 4
Last Quarter
Jan 11
New
Jan 18
First Quarter
Jan 26
Full

Hourly Weather History & Observations

Time (CST) Temp. Windchill Dew Point Humidity Pressure Visibility Wind Dir Wind Speed Gust Speed Precip Events Conditions
12:53 AM 6.1 °F -4.3 °F 3.0 °F 87% 30.34 in 10.0 mi NW 5.8 mph - N/A   Clear
1:53 AM 7.0 °F -1.7 °F 1.9 °F 80% 30.32 in 10.0 mi WNW 4.6 mph - N/A   Clear
2:53 AM 3.9 °F -9.4 °F -0.0 °F 84% 30.32 in 10.0 mi NW 8.1 mph - N/A   Clear
3:53 AM 6.1 °F -5.6 °F 1.0 °F 80% 30.31 in 10.0 mi NW 6.9 mph - N/A   Clear
4:53 AM 5.0 °F -8.1 °F 1.0 °F 84% 30.31 in 10.0 mi NW 8.1 mph - N/A   Clear
5:53 AM 3.2 °F -7.8 °F -0.4 °F 85% 30.17 in 10.0 mi NW 5.8 mph - N/A   Clear
6:53 AM 3.2 °F -4.2 °F -0.4 °F 85% 30.16 in 10.0 mi NW 3.5 mph - N/A   Clear
7:53 AM 3.9 °F -6.9 °F -0.0 °F 84% 30.33 in 10.0 mi NW 5.8 mph - N/A   Clear
8:53 AM 8.1 °F -2.0 °F 3.0 °F 80% 30.33 in 10.0 mi NW 5.8 mph - N/A   Clear
9:53 AM 16.0 °F 8.8 °F 9.0 °F 74% 30.32 in 10.0 mi West 4.6 mph - N/A   Clear
10:53 AM 21.9 °F 14.5 °F 10.0 °F 60% 30.32 in 10.0 mi WNW 5.8 mph - N/A   Clear
11:53 AM 27.0 °F 20.5 °F 12.0 °F 53% 30.30 in 10.0 mi WSW 5.8 mph - N/A   Clear
12:53 PM 30.0 °F 23.2 °F 15.1 °F 54% 30.26 in 10.0 mi West 6.9 mph - N/A   Clear
1:53 PM 33.1 °F 26.1 °F 18.0 °F 54% 30.22 in 10.0 mi West 8.1 mph - N/A   Clear
2:53 PM 34.0 °F 28.8 °F 17.1 °F 50% 30.19 in 10.0 mi WNW 5.8 mph - N/A   Clear
3:53 PM 37.0 °F - 18.0 °F 46% 30.17 in 10.0 mi Calm Calm - N/A   Clear
4:53 PM 32.0 °F 26.4 °F 19.0 °F 59% 30.18 in 10.0 mi South 5.8 mph - N/A   Clear
5:53 PM 26.1 °F 21.9 °F 17.1 °F 69% 30.19 in 10.0 mi South 3.5 mph - N/A   Clear
6:53 PM 19.9 °F - 15.1 °F 81% 30.21 in 10.0 mi Calm Calm - N/A   Clear
7:53 PM 18.0 °F - 12.9 °F 81% 30.22 in 10.0 mi Calm Calm - N/A   Clear
8:53 PM 10.0 °F 0.4 °F 8.1 °F 92% 30.22 in 10.0 mi NW 5.8 mph - N/A   Clear
9:53 PM 10.9 °F 1.4 °F 7.0 °F 84% 30.19 in 10.0 mi WNW 5.8 mph - N/A   Clear
10:53 PM 10.9 °F 1.4 °F 8.1 °F 88% 30.17 in 10.0 mi WNW 5.8 mph - N/A   Clear
11:53 PM 10.0 °F 1.8 °F 6.1 °F 84% 30.14 in 10.0 mi West 4.6 mph - N/A   Clear